Weather History for KVQQ - March, 2013

Change the Weather History Date:

Saturday, March 23, 2013

  Actual Average (KJAX) Record (KJAX)
Temperature  
Mean Temperature 54 °F 63 °F  
Max Temperature 64 °F 75 °F 91 °F (1935)
Min Temperature 44 °F 51 °F 33 °F (1986)
Degree Days  
Heating Degree Days 11 4  
Month to date heating degree days 128  
Since 1 July heating degree days 1261  
Cooling Degree Days 0 2  
Month to date cooling degree days 38  
Year to date cooling degree days 67  
Growing Degree Days 4 (Base 50)    
Moisture  
Dew Point 53 °F    
Average Humidity 97    
Maximum Humidity 100    
Minimum Humidity 87    
Precipitation  
Precipitation 0.15 in 0.11 in 2.34 in (1930)
Month to date precipitation 2.99  
Year to date precipitation 9.48  
Snow  
Snow 0.00 in 0.00 in 0.00 in (2002)
Month to date snowfall 0.0  
Since 1 July snowfall T  
Snow Depth -    
Sea Level Pressure  
Sea Level Pressure 29.92 in    
Wind  
Wind Speed 2 mph (ESE)    
Max Wind Speed 16 mph    
Max Gust Speed -    
Visibility 7 miles    
Events Rain , Thunderstorm    
T = Trace of Precipitation, MM = Missing Value Source: NWS Daily Summary

Daily Weather History Graph

Daily Weather History Graph

Search for Another Location

Airport or City:

Trip Planner

Search our weather history database for the weather conditions in past years. The results will help you decide how hot, cold, wet, or windy it might be!

Date:

Astronomy

Mar. 23, 2013 Rise Set
Actual Time 7:27 AM EDT 7:40 PM EDT
Civil Twilight 7:03 AM EDT 8:04 PM EDT
Nautical Twilight 6:35 AM EDT 8:32 PM EDT
Astronomical Twilight 6:07 AM EDT 9:01 PM EDT
Moon 4:19 PM EDT (3/23) 4:48 AM EDT (3/23)
Length of Visible Light 13h 01m
Length of Day
12h 13m
Waxing Gibbous, 85% of the Moon is Illuminated
Mar 23
Waxing Gibbous
Mar 27
Full
Apr 3
Last Quarter
Apr 10
New
Apr 18
First Quarter

Hourly Weather History & Observations

Time (EDT) Temp. Dew Point Humidity Pressure Visibility Wind Dir Wind Speed Gust Speed Precip Events Conditions
12:15 AM 48.2 °F 44.6 °F 87% 30.02 in 10.0 mi Calm Calm - N/A   Clear
12:35 AM 48.2 °F 44.6 °F 87% 30.01 in 10.0 mi Calm Calm - N/A   Clear
12:55 AM 46.4 °F 44.6 °F 93% 30.01 in 10.0 mi Calm Calm - N/A   Clear
1:15 AM 46.4 °F 46.4 °F 100% 30.01 in 10.0 mi Calm Calm - N/A   Clear
1:35 AM 46.4 °F 44.6 °F 93% 30.00 in 10.0 mi Calm Calm - N/A   Clear
1:55 AM 46.4 °F 44.6 °F 93% 30.00 in 10.0 mi Calm Calm - N/A   Clear
2:15 AM 44.6 °F 44.6 °F 100% 29.99 in 10.0 mi Calm Calm - N/A   Clear
2:35 AM 44.6 °F 44.6 °F 100% 29.99 in 10.0 mi Calm Calm - N/A   Clear
2:55 AM 46.4 °F 44.6 °F 93% 29.98 in 10.0 mi Calm Calm - N/A   Clear
3:15 AM 44.6 °F 44.6 °F 100% 29.97 in 10.0 mi Calm Calm - N/A   Clear
3:35 AM 46.4 °F 46.4 °F 100% 29.96 in 10.0 mi Calm Calm - N/A   Scattered Clouds
3:55 AM 48.2 °F 46.4 °F 93% 29.95 in 10.0 mi Calm Calm - N/A   Mostly Cloudy
4:15 AM 48.2 °F 48.2 °F 100% 29.95 in 10.0 mi Calm Calm - N/A   Overcast
4:35 AM 50.0 °F 48.2 °F 94% 29.94 in 10.0 mi Calm Calm - N/A   Overcast
4:55 AM 50.0 °F 48.2 °F 94% 29.93 in 10.0 mi Calm Calm - N/A   Overcast
5:15 AM 50.0 °F 48.2 °F 94% 29.94 in 10.0 mi Calm Calm - N/A   Overcast
5:35 AM 51.8 °F 50.0 °F 94% 29.93 in 10.0 mi Calm Calm - N/A   Overcast
5:55 AM 51.8 °F 50.0 °F 94% 29.94 in 10.0 mi Calm Calm - N/A   Mostly Cloudy
6:15 AM 51.8 °F 50.0 °F 94% 29.94 in 10.0 mi Calm Calm - N/A   Mostly Cloudy
6:35 AM 51.8 °F 50.0 °F 94% 29.94 in 10.0 mi Calm Calm - N/A   Mostly Cloudy
6:50 AM 51.8 °F 51.8 °F 100% 29.94 in 10.0 mi Calm Calm - N/A   Mostly Cloudy
7:50 AM 53.6 °F 51.8 °F 94% 29.92 in 10.0 mi Calm Calm - N/A   Mostly Cloudy
8:50 AM 59.0 °F 57.2 °F 94% 29.94 in 10.0 mi SSE 4.6 mph - N/A   Mostly Cloudy
9:50 AM 62.6 °F 59.0 °F 88% 29.93 in 10.0 mi ESE 5.8 mph - N/A   Mostly Cloudy
11:50 AM 62.6 °F 62.6 °F 100% 29.90 in 6.0 mi Variable 3.5 mph - N/A Rain Light Rain
12:50 PM 64.4 °F 64.4 °F 100% 29.90 in 3.0 mi South 8.1 mph - N/A Rain Rain
1:50 PM 64.4 °F 64.4 °F 100% 29.90 in 1.0 mi WNW 16.1 mph - N/A Rain Heavy Rain
3:50 PM 62.6 °F 62.6 °F 100% 29.83 in 3.0 mi ESE 4.6 mph - N/A   Overcast
4:50 PM 64.4 °F 64.4 °F 100% 29.80 in 3.0 mi NNE 11.5 mph - N/A Rain Light Rain
6:15 PM 57.2 °F 57.2 °F 100% 29.84 in 1.0 mi East 8.1 mph - N/A Rain , Thunderstorm Heavy Thunderstorms and Rain
6:50 PM 57.2 °F 57.2 °F 100% 29.86 in 2.0 mi East 6.9 mph - N/A Rain , Thunderstorm Thunderstorms and Rain
7:30 PM 55.4 °F 55.4 °F 100% 29.86 in 2.0 mi ENE 6.9 mph - N/A Rain Rain
7:50 PM 55.4 °F 55.4 °F 100% 29.86 in 3.0 mi Variable 3.5 mph - N/A Rain Rain
8:15 PM 55.4 °F 55.4 °F 100% 29.88 in 7.0 mi North 4.6 mph - N/A   Overcast
8:35 PM 55.4 °F 55.4 °F 100% 29.90 in 3.0 mi Calm Calm - 0.01 in Rain Light Rain
8:55 PM 55.4 °F 55.4 °F 100% 29.91 in 2.0 mi Calm Calm - 0.07 in Rain , Thunderstorm Light Rain
9:15 PM 55.4 °F 55.4 °F 100% 29.87 in 1.5 mi East 4.6 mph - 0.03 in Rain Light Rain
9:35 PM 55.4 °F 55.4 °F 100% 29.84 in 2.0 mi ESE 6.9 mph - 0.05 in Rain , Thunderstorm Light Rain
9:55 PM 57.2 °F 57.2 °F 100% 29.86 in 2.5 mi Calm Calm - 0.05 in Rain , Thunderstorm Light Rain
10:15 PM 57.2 °F 57.2 °F 100% 29.86 in 5.0 mi Calm Calm - N/A   Overcast
10:35 PM 57.2 °F 57.2 °F 100% 29.84 in 2.5 mi Calm Calm - N/A Rain , Thunderstorm Light Thunderstorms and Rain
10:55 PM 57.2 °F 57.2 °F 100% 29.87 in 3.0 mi NNW 5.8 mph - 0.03 in Rain , Thunderstorm Light Rain
11:15 PM 57.2 °F 57.2 °F 100% 29.84 in 2.5 mi SSE 3.5 mph - N/A Rain Light Rain
11:35 PM 59.0 °F 59.0 °F 100% 29.84 in 2.5 mi SSE 4.6 mph - N/A   Overcast
11:55 PM 59.0 °F 59.0 °F 100% 29.82 in 4.0 mi Calm Calm - N/A   Overcast